Voltar ao catálogo

STARLINK-35606

AtivoComunicaçõesVLEO
NORAD 66171·PAYLOAD·🇺🇸 United States

Lançado Oct 25, 2025 de Cape Canaveral Space Force Station

Loading…

Próximas Passagens (próximas 24 horas)

TLE

AtualizadoSource: CelesTrak SupGP

Época: Sep 15, 2026, 03:45 UTC

1 66171C 25240AB  26258.15673611 -.00040122  00000+0 -11852-2 0  2584
2 66171  53.1577 258.5139 0001334  85.1008  13.9932 15.34416065    10

Acompanhe STARLINK-35606 em tempo real com AllMySat

Download on the App Store